Time,TemperatureF,DewpointF,PressureIn,WindDirection,WindDirectionDegrees,WindSpeedMPH,WindSpeedGustMPH,Humidity,HourlyPrecipIn,Conditions,Clouds,dailyrainin,SolarRadiationWatts/m^2,SoftwareType,DateUTC
2013-08-11 00:01:00,48.0,46.0,30.10,WNW,299,0.0,-999.0,92,-99.99,,,-99.99,0.000000,,2013-08-11 04:01:00,
2013-08-11 00:12:00,48.0,46.0,30.10,WNW,299,0.0,-999.0,93,-99.99,,,-99.99,0.000000,,2013-08-11 04:12:00,
2013-08-11 00:22:00,48.0,46.0,30.10,WNW,299,0.0,-999.0,93,-99.99,,,-99.99,0.000000,,2013-08-11 04:22:00,
2013-08-11 00:32:00,47.0,45.0,30.10,WNW,299,0.0,-999.0,93,-99.99,,,-99.99,0.000000,,2013-08-11 04:32:00,
2013-08-11 00:43:00,47.0,45.0,30.11,WNW,299,0.0,-999.0,93,-99.99,,,-99.99,0.000000,,2013-08-11 04:43:00,
2013-08-11 00:53:00,47.0,45.0,30.11,WNW,299,0.0,-999.0,93,-99.99,,,-99.99,0.000000,,2013-08-11 04:53:00,
2013-08-11 01:02:00,47.0,45.0,30.11,WNW,299,0.0,-999.0,93,-99.99,,,-99.99,0.000000,,2013-08-11 05:02:00,
2013-08-11 01:20:00,47.0,45.0,30.11,WNW,299,0.0,-999.0,93,-99.99,,,-99.99,0.000000,,2013-08-11 05:20:00,
2013-08-11 01:37:00,46.0,44.0,30.12,WNW,299,0.0,-999.0,93,-99.99,,,-99.99,0.000000,,2013-08-11 05:37:00,
2013-08-11 01:48:00,46.0,44.0,30.12,WNW,299,0.0,-999.0,93,-99.99,,,-99.99,0.000000,,2013-08-11 05:48:00,
2013-08-11 01:54:00,46.0,44.0,30.12,WNW,299,0.0,-999.0,93,-99.99,,,-99.99,0.000000,,2013-08-11 05:54:00,
2013-08-11 02:04:00,46.0,44.0,30.12,WNW,299,0.0,-999.0,93,-99.99,,,-99.99,0.000000,,2013-08-11 06:04:00,
2013-08-11 02:18:00,45.0,43.0,30.12,WNW,299,0.0,-999.0,93,-99.99,,,-99.99,0.000000,,2013-08-11 06:18:00,
2013-08-11 02:26:00,45.0,43.0,30.12,WNW,299,0.0,-999.0,93,-99.99,,,-99.99,0.000000,,2013-08-11 06:26:00,
2013-08-11 02:49:00,45.0,43.0,30.12,WNW,299,0.0,-999.0,93,-99.99,,,-99.99,0.000000,,2013-08-11 06:49:00,
2013-08-11 02:55:00,45.0,43.0,30.12,WNW,299,0.0,-999.0,93,-99.99,,,-99.99,0.000000,,2013-08-11 06:55:00,
2013-08-11 03:07:00,45.0,43.0,30.12,WNW,299,0.0,-999.0,93,-99.99,,,-99.99,0.000000,,2013-08-11 07:07:00,
2013-08-11 03:25:00,44.0,42.0,30.13,WNW,299,0.0,-999.0,94,-99.99,,,-99.99,0.000000,,2013-08-11 07:25:00,
2013-08-11 03:36:00,44.0,42.0,30.13,WNW,299,0.0,-999.0,94,-99.99,,,-99.99,0.000000,,2013-08-11 07:36:00,
2013-08-11 03:46:00,44.0,42.0,30.13,WNW,299,0.0,-999.0,94,-99.99,,,-99.99,0.000000,,2013-08-11 07:46:00,
2013-08-11 03:54:00,44.0,42.0,30.13,WNW,299,0.0,-999.0,94,-99.99,,,-99.99,0.000000,,2013-08-11 07:54:00,
2013-08-11 04:11:00,44.0,42.0,30.13,WNW,299,0.0,-999.0,94,-99.99,,,-99.99,0.000000,,2013-08-11 08:11:00,
2013-08-11 04:20:00,44.0,42.0,30.13,WNW,299,0.0,-999.0,94,-99.99,,,-99.99,0.000000,,2013-08-11 08:20:00,
2013-08-11 04:27:00,44.0,42.0,30.13,WNW,299,0.0,-999.0,94,-99.99,,,-99.99,0.000000,,2013-08-11 08:27:00,
2013-08-11 04:37:00,44.0,42.0,30.13,WNW,299,0.0,-999.0,94,-99.99,,,-99.99,0.000000,,2013-08-11 08:37:00,
2013-08-11 04:49:00,43.0,41.0,30.13,WNW,299,0.0,-999.0,94,-99.99,,,-99.99,0.000000,,2013-08-11 08:49:00,
2013-08-11 04:57:00,43.0,41.0,30.14,WNW,299,0.0,-999.0,94,-99.99,,,-99.99,0.000000,,2013-08-11 08:57:00,
2013-08-11 05:17:00,43.0,41.0,30.14,WNW,299,0.0,-999.0,94,-99.99,,,-99.99,0.000000,,2013-08-11 09:17:00,
2013-08-11 05:35:00,44.0,42.0,30.14,WNW,299,0.0,-999.0,94,-99.99,,,-99.99,0.000000,,2013-08-11 09:35:00,
2013-08-11 05:44:00,43.0,41.0,30.14,WNW,299,0.0,-999.0,94,-99.99,,,-99.99,0.000000,,2013-08-11 09:44:00,
2013-08-11 05:58:00,43.0,41.0,30.14,WNW,299,0.0,-999.0,94,-99.99,,,-99.99,0.000000,,2013-08-11 09:58:00,
2013-08-11 06:06:00,43.0,41.0,30.14,WNW,299,0.0,-999.0,94,-99.99,,,-99.99,0.000000,,2013-08-11 10:06:00,
2013-08-11 06:15:00,43.0,42.0,30.15,WNW,299,0.0,-999.0,95,-99.99,,,-99.99,0.000000,,2013-08-11 10:15:00,
2013-08-11 06:29:00,43.0,42.0,30.15,WNW,299,0.0,-999.0,95,-99.99,,,-99.99,0.000000,,2013-08-11 10:29:00,
2013-08-11 06:36:00,43.0,41.0,30.15,WNW,299,0.0,-999.0,94,-99.99,,,-99.99,0.000000,,2013-08-11 10:36:00,
2013-08-11 06:47:00,43.0,41.0,30.15,WNW,299,0.0,-999.0,94,-99.99,,,-99.99,11.000000,,2013-08-11 10:47:00,
2013-08-11 06:55:00,43.0,41.0,30.16,WNW,299,0.0,-999.0,94,-99.99,,,-99.99,26.000000,,2013-08-11 10:55:00,
2013-08-11 07:07:00,43.0,41.0,30.16,WNW,299,0.0,-999.0,94,-99.99,,,-99.99,26.000000,,2013-08-11 11:07:00,
2013-08-11 07:16:00,44.0,43.0,30.16,WNW,299,0.0,-999.0,95,-99.99,,,-99.99,54.000000,,2013-08-11 11:16:00,
2013-08-11 07:24:00,44.0,43.0,30.16,WNW,299,0.0,-999.0,95,-99.99,,,-99.99,54.000000,,2013-08-11 11:24:00,
2013-08-11 07:38:00,44.0,43.0,30.16,WNW,299,0.0,-999.0,95,-99.99,,,-99.99,62.000000,,2013-08-11 11:38:00,
2013-08-11 07:56:00,45.0,44.0,30.16,WNW,299,0.0,-999.0,95,-99.99,,,-99.99,221.000000,,2013-08-11 11:56:00,
2013-08-11 08:07:00,45.0,44.0,30.16,WNW,299,0.0,-999.0,95,-99.99,,,-99.99,221.000000,,2013-08-11 12:07:00,
2013-08-11 08:16:00,47.0,46.0,30.16,WNW,299,0.0,-999.0,95,-99.99,,,-99.99,255.000000,,2013-08-11 12:16:00,
2013-08-11 08:30:00,49.0,48.0,30.16,WNW,299,0.0,-999.0,95,-99.99,,,-99.99,295.000000,,2013-08-11 12:30:00,
2013-08-11 08:36:00,49.0,48.0,30.16,WNW,299,0.0,-999.0,95,-99.99,,,-99.99,295.000000,,2013-08-11 12:36:00,
2013-08-11 08:46:00,50.0,48.0,30.16,WNW,296,1.0,-999.0,94,-99.99,,,-99.99,339.000000,,2013-08-11 12:46:00,
2013-08-11 09:06:00,53.0,50.0,30.16,WNW,296,0.0,-999.0,89,-99.99,,,-99.99,406.000000,,2013-08-11 13:06:00,
2013-08-11 09:17:00,56.0,51.0,30.16,WSW,245,1.0,-999.0,84,-99.99,,,-99.99,457.000000,,2013-08-11 13:17:00,
2013-08-11 09:26:00,59.0,52.0,30.16,SSE,162,1.0,-999.0,79,-99.99,,,-99.99,510.000000,,2013-08-11 13:26:00,
2013-08-11 09:39:00,59.0,52.0,30.16,SSE,162,1.0,-999.0,79,-99.99,,,-99.99,510.000000,,2013-08-11 13:39:00,
2013-08-11 09:56:00,62.0,53.0,30.16,SSE,165,1.0,-999.0,72,-99.99,,,-99.99,592.000000,,2013-08-11 13:56:00,
2013-08-11 10:06:00,62.0,53.0,30.16,SSE,165,1.0,-999.0,72,-99.99,,,-99.99,592.000000,,2013-08-11 14:06:00,
2013-08-11 10:19:00,64.0,53.0,30.15,South,185,1.0,-999.0,68,-99.99,,,-99.99,633.000000,,2013-08-11 14:19:00,
2013-08-11 10:24:00,64.0,52.0,30.16,SE,140,2.0,-999.0,65,-99.99,,,-99.99,694.000000,,2013-08-11 14:24:00,
2013-08-11 10:35:00,64.0,52.0,30.16,SE,140,2.0,-999.0,65,-99.99,,,-99.99,694.000000,,2013-08-11 14:35:00,
2013-08-11 10:49:00,65.0,53.0,30.15,SW,214,2.0,-999.0,64,-99.99,,,-99.99,714.000000,,2013-08-11 14:49:00,
2013-08-11 10:56:00,65.0,53.0,30.15,ENE,78,2.0,-999.0,64,-99.99,,,-99.99,784.000000,,2013-08-11 14:56:00,
2013-08-11 11:08:00,65.0,53.0,30.15,ENE,78,2.0,-999.0,64,-99.99,,,-99.99,784.000000,,2013-08-11 15:08:00,
2013-08-11 11:24:00,66.0,52.0,30.15,South,181,2.0,-999.0,61,-99.99,,,-99.99,276.000000,,2013-08-11 15:24:00,
2013-08-11 11:49:00,66.0,52.0,30.15,SW,235,1.0,-999.0,61,-99.99,,,-99.99,267.000000,,2013-08-11 15:49:00,
2013-08-11 11:58:00,67.0,53.0,30.14,SW,226,1.0,-999.0,60,-99.99,,,-99.99,160.000000,,2013-08-11 15:58:00,
2013-08-11 12:11:00,67.0,53.0,30.14,SW,226,1.0,-999.0,60,-99.99,,,-99.99,160.000000,,2013-08-11 16:11:00,
2013-08-11 12:29:00,68.0,52.0,30.14,WSW,257,3.0,-999.0,56,-99.99,,,-99.99,872.000000,,2013-08-11 16:29:00,
2013-08-11 12:40:00,68.0,52.0,30.14,WSW,257,3.0,-999.0,56,-99.99,,,-99.99,872.000000,,2013-08-11 16:40:00,
2013-08-11 12:46:00,70.0,51.0,30.14,NNW,339,4.0,-999.0,51,-99.99,,,-99.99,893.000000,,2013-08-11 16:46:00,
2013-08-11 12:55:00,70.0,52.0,30.13,NW,306,3.0,-999.0,53,-99.99,,,-99.99,153.000000,,2013-08-11 16:55:00,
2013-08-11 13:08:00,70.0,52.0,30.13,NW,306,3.0,-999.0,53,-99.99,,,-99.99,153.000000,,2013-08-11 17:08:00,
2013-08-11 13:26:00,69.0,53.0,30.12,WNW,287,3.0,-999.0,57,-99.99,,,-99.99,283.000000,,2013-08-11 17:26:00,
2013-08-11 13:38:00,69.0,53.0,30.12,WNW,287,3.0,-999.0,57,-99.99,,,-99.99,283.000000,,2013-08-11 17:38:00,
2013-08-11 13:55:00,70.0,53.0,30.12,WNW,296,3.0,-999.0,55,-99.99,,,-99.99,350.000000,,2013-08-11 17:55:00,
2013-08-11 14:06:00,70.0,53.0,30.12,WNW,296,3.0,-999.0,55,-99.99,,,-99.99,350.000000,,2013-08-11 18:06:00,
2013-08-11 14:19:00,69.0,53.0,30.12,West,262,3.0,-999.0,56,-99.99,,,-99.99,362.000000,,2013-08-11 18:19:00,
2013-08-11 14:29:00,70.0,53.0,30.11,SSW,194,6.0,-999.0,54,-99.99,,,-99.99,810.000000,,2013-08-11 18:29:00,
2013-08-11 14:40:00,70.0,53.0,30.11,SSW,194,6.0,-999.0,54,-99.99,,,-99.99,810.000000,,2013-08-11 18:40:00,
2013-08-11 14:47:00,70.0,53.0,30.11,WSW,256,6.0,-999.0,54,-99.99,,,-99.99,406.000000,,2013-08-11 18:47:00,
2013-08-11 15:10:00,70.0,53.0,30.11,WSW,254,3.0,-999.0,55,-99.99,,,-99.99,397.000000,,2013-08-11 19:10:00,
2013-08-11 15:16:00,71.0,54.0,30.11,WSW,250,5.0,-999.0,55,-99.99,,,-99.99,923.000000,,2013-08-11 19:16:00,
2013-08-11 15:27:00,70.0,53.0,30.11,SSW,198,4.0,-999.0,54,-99.99,,,-99.99,555.000000,,2013-08-11 19:27:00,
2013-08-11 15:34:00,70.0,53.0,30.11,SSW,198,4.0,-999.0,54,-99.99,,,-99.99,555.000000,,2013-08-11 19:34:00,
2013-08-11 15:51:00,70.0,53.0,30.10,SW,226,5.0,-999.0,55,-99.99,,,-99.99,345.000000,,2013-08-11 19:51:00,
2013-08-11 15:57:00,71.0,54.0,30.09,West,265,3.0,-999.0,56,-99.99,,,-99.99,316.000000,,2013-08-11 19:57:00,
2013-08-11 16:08:00,71.0,54.0,30.09,West,265,3.0,-999.0,56,-99.99,,,-99.99,316.000000,,2013-08-11 20:08:00,
2013-08-11 16:20:00,71.0,54.0,30.09,South,175,6.0,-999.0,55,-99.99,,,-99.99,768.000000,,2013-08-11 20:20:00,
2013-08-11 16:28:00,70.0,55.0,30.09,North,360,5.0,-999.0,58,-99.99,,,-99.99,842.000000,,2013-08-11 20:28:00,
2013-08-11 16:38:00,70.0,55.0,30.09,North,360,5.0,-999.0,58,-99.99,,,-99.99,842.000000,,2013-08-11 20:38:00,
2013-08-11 16:56:00,70.0,54.0,30.09,NW,314,2.0,-999.0,57,-99.99,,,-99.99,717.000000,,2013-08-11 20:56:00,
2013-08-11 17:08:00,70.0,54.0,30.09,NW,314,2.0,-999.0,57,-99.99,,,-99.99,717.000000,,2013-08-11 21:08:00,
2013-08-11 17:14:00,71.0,54.0,30.09,West,269,4.0,-999.0,56,-99.99,,,-99.99,545.000000,,2013-08-11 21:14:00,
2013-08-11 17:27:00,71.0,55.0,30.09,West,275,3.0,-999.0,57,-99.99,,,-99.99,480.000000,,2013-08-11 21:27:00,
2013-08-11 17:35:00,71.0,55.0,30.09,West,275,3.0,-999.0,57,-99.99,,,-99.99,480.000000,,2013-08-11 21:35:00,
2013-08-11 17:55:00,70.0,55.0,30.09,West,267,3.0,-999.0,59,-99.99,,,-99.99,394.000000,,2013-08-11 21:55:00,
2013-08-11 18:05:00,70.0,55.0,30.09,West,267,3.0,-999.0,59,-99.99,,,-99.99,394.000000,,2013-08-11 22:05:00,
2013-08-11 18:17:00,71.0,55.0,30.08,SW,231,4.0,-999.0,57,-99.99,,,-99.99,371.000000,,2013-08-11 22:17:00,
2013-08-11 18:25:00,71.0,55.0,30.07,WSW,258,3.0,-999.0,58,-99.99,,,-99.99,311.000000,,2013-08-11 22:25:00,
2013-08-11 18:36:00,71.0,55.0,30.07,WSW,258,3.0,-999.0,58,-99.99,,,-99.99,311.000000,,2013-08-11 22:36:00,
2013-08-11 18:47:00,70.0,54.0,30.07,WNW,303,4.0,-999.0,57,-99.99,,,-99.99,248.000000,,2013-08-11 22:47:00,
2013-08-11 18:56:00,70.0,55.0,30.07,WSW,252,4.0,-999.0,59,-99.99,,,-99.99,197.000000,,2013-08-11 22:56:00,
2013-08-11 19:07:00,70.0,55.0,30.07,WSW,252,4.0,-999.0,59,-99.99,,,-99.99,197.000000,,2013-08-11 23:07:00,
2013-08-11 19:18:00,70.0,55.0,30.07,SW,236,2.0,-999.0,59,-99.99,,,-99.99,134.000000,,2013-08-11 23:18:00,
2013-08-11 19:35:00,70.0,55.0,30.07,West,259,2.0,-999.0,60,-99.99,,,-99.99,84.000000,,2013-08-11 23:35:00,
2013-08-11 19:48:00,69.0,55.0,30.07,WSW,255,1.0,-999.0,62,-99.99,,,-99.99,54.000000,,2013-08-11 23:48:00,
2013-08-11 19:57:00,68.0,56.0,30.08,WSW,255,0.0,-999.0,66,-99.99,,,-99.99,18.000000,,2013-08-11 23:57:00,
2013-08-11 20:37:00,64.0,56.0,30.09,WSW,255,0.0,-999.0,75,-99.99,,,-99.99,0.000000,,2013-08-12 00:37:00,
2013-08-11 20:50:00,63.0,55.0,30.08,WSW,255,0.0,-999.0,76,-99.99,,,-99.99,0.000000,,2013-08-12 00:50:00,
2013-08-11 21:08:00,62.0,55.0,30.09,WSW,255,0.0,-999.0,78,-99.99,,,-99.99,0.000000,,2013-08-12 01:08:00,
2013-08-11 21:15:00,61.0,55.0,30.09,WSW,255,0.0,-999.0,80,-99.99,,,-99.99,0.000000,,2013-08-12 01:15:00,
2013-08-11 21:26:00,60.0,54.0,30.09,WSW,255,0.0,-999.0,82,-99.99,,,-99.99,0.000000,,2013-08-12 01:26:00,
2013-08-11 21:38:00,60.0,54.0,30.09,WSW,255,0.0,-999.0,82,-99.99,,,-99.99,0.000000,,2013-08-12 01:38:00,
2013-08-11 21:47:00,59.0,54.0,30.09,WSW,255,0.0,-999.0,84,-99.99,,,-99.99,0.000000,,2013-08-12 01:47:00,
2013-08-11 21:55:00,58.0,54.0,30.10,WSW,255,0.0,-999.0,86,-99.99,,,-99.99,0.000000,,2013-08-12 01:55:00,
2013-08-11 22:08:00,58.0,54.0,30.10,WSW,255,0.0,-999.0,86,-99.99,,,-99.99,0.000000,,2013-08-12 02:08:00,
2013-08-11 22:16:00,57.0,53.0,30.10,WSW,255,0.0,-999.0,87,-99.99,,,-99.99,0.000000,,2013-08-12 02:16:00,
2013-08-11 22:25:00,56.0,52.0,30.09,WSW,255,0.0,-999.0,88,-99.99,,,-99.99,0.000000,,2013-08-12 02:25:00,
2013-08-11 22:37:00,56.0,52.0,30.09,WSW,255,0.0,-999.0,88,-99.99,,,-99.99,0.000000,,2013-08-12 02:37:00,
2013-08-11 22:48:00,56.0,52.0,30.10,WSW,255,0.0,-999.0,88,-99.99,,,-99.99,0.000000,,2013-08-12 02:48:00,
2013-08-11 22:56:00,55.0,52.0,30.10,WSW,255,0.0,-999.0,89,-99.99,,,-99.99,0.000000,,2013-08-12 02:56:00,
2013-08-11 23:09:00,55.0,52.0,30.10,WSW,255,0.0,-999.0,89,-99.99,,,-99.99,0.000000,,2013-08-12 03:09:00,
2013-08-11 23:16:00,55.0,52.0,30.10,WSW,255,0.0,-999.0,89,-99.99,,,-99.99,0.000000,,2013-08-12 03:16:00,
2013-08-11 23:25:00,54.0,51.0,30.10,WSW,255,0.0,-999.0,90,-99.99,,,-99.99,0.000000,,2013-08-12 03:25:00,
2013-08-11 23:39:00,54.0,51.0,30.10,WSW,255,0.0,-999.0,90,-99.99,,,-99.99,0.000000,,2013-08-12 03:39:00,
2013-08-11 23:57:00,53.0,50.0,30.10,WSW,255,0.0,-999.0,90,-99.99,,,-99.99,0.000000,,2013-08-12 03:57:00,